Change the Weather History Date:

Sunday, December 30, 2012

  Actual Average Record
Temperature  
Mean Temperature 38 °F -  
Max Temperature 46 °F 54 °F 73 °F (2008)
Min Temperature 30 °F 35 °F 27 °F (2000)
Degree Days  
Heating Degree Days 27    
Moisture  
Dew Point 23 °F    
Average Humidity 54    
Maximum Humidity 72    
Minimum Humidity 35    
Precipitation  
Precipitation 0.00 in - - ()
Sea Level Pressure  
Sea Level Pressure 30.36 in    
Wind  
Wind Speed 6 mph (SSE)    
Max Wind Speed 15 mph    
Max Gust Speed 21 mph    
Visibility 10 miles    
Events Rain    
Averages and records for this station are not official NWS values.
T = Trace of Precipitation, MM = Missing Value Source: NWS Daily Summary

Daily Weather History Graph

Daily Weather History Graph

Search for Another Location

Airport or City:

Trip Planner

Search our weather history database for the weather conditions in past years. The results will help you decide how hot, cold, wet, or windy it might be!

Date:

Astronomy

Dec. 30, 2012 Rise Set
Actual Time 7:29 AM CST 5:31 PM CST
Civil Twilight 7:02 AM CST 5:58 PM CST
Nautical Twilight 6:31 AM CST 6:29 PM CST
Astronomical Twilight 6:01 AM CST 6:59 PM CST
Moon 7:55 PM CST (12/30) 8:46 AM CST (12/30)
Length of Visible Light 10h 56m
Length of Day
10h 02m
Waning Gibbous, 95% of the Moon is Illuminated
Dec 30
Waning Gibbous
Jan 4
Last Quarter
Jan 11
New
Jan 18
First Quarter
Jan 26
Full

Hourly Weather History & Observations

Time (CST) Temp. Windchill Dew Point Humidity Pressure Visibility Wind Dir Wind Speed Gust Speed Precip Events Conditions
12:53 AM 30.9 °F 27.5 °F 21.0 °F 67% 30.44 in 10.0 mi South 3.5 mph - N/A   Clear
1:53 AM 34.0 °F 31.0 °F 21.0 °F 59% 30.43 in 10.0 mi South 3.5 mph - N/A   Clear
2:53 AM 33.1 °F - 21.0 °F 61% 30.44 in 10.0 mi Calm Calm - N/A   Clear
3:53 AM 30.0 °F - 21.0 °F 69% 30.43 in 10.0 mi Calm Calm - N/A   Clear
4:53 AM 30.9 °F 26.2 °F 21.0 °F 67% 30.42 in 10.0 mi South 4.6 mph - N/A   Clear
5:53 AM 30.9 °F 26.2 °F 21.0 °F 67% 30.43 in 10.0 mi SSE 4.6 mph - N/A   Clear
6:53 AM 30.9 °F 26.2 °F 21.9 °F 69% 30.43 in 10.0 mi SSE 4.6 mph - N/A   Clear
7:53 AM 30.9 °F 26.2 °F 23.0 °F 72% 30.43 in 10.0 mi SSE 4.6 mph - N/A   Clear
8:53 AM 35.1 °F 30.1 °F 25.0 °F 67% 30.45 in 10.0 mi SSE 5.8 mph - N/A   Clear
9:53 AM 39.0 °F 32.3 °F 25.0 °F 57% 30.46 in 10.0 mi SSE 10.4 mph - N/A   Clear
10:53 AM 41.0 °F 34.3 °F 24.1 °F 51% 30.44 in 10.0 mi SE 11.5 mph - N/A   Clear
11:53 AM 44.1 °F 38.1 °F 21.0 °F 40% 30.40 in 10.0 mi SSE 11.5 mph - N/A   Clear
12:53 PM 46.0 °F 41.4 °F 23.0 °F 40% 30.37 in 10.0 mi SE 9.2 mph - N/A   Clear
1:53 PM 46.0 °F 41.0 °F 21.0 °F 37% 30.34 in 10.0 mi SSE 10.4 mph - N/A   Clear
2:53 PM 46.9 °F - 21.9 °F 37% 30.31 in 10.0 mi SSE 11.5 mph 18.4 mph N/A   Clear
3:53 PM 46.0 °F 40.2 °F 19.9 °F 35% 30.30 in 10.0 mi South 12.7 mph 20.7 mph N/A   Clear
4:53 PM 45.0 °F 39.3 °F 21.0 °F 39% 30.28 in 10.0 mi SSE 11.5 mph 19.6 mph N/A   Mostly Cloudy
5:53 PM 43.0 °F 38.2 °F 27.0 °F 53% 30.28 in 10.0 mi SSE 8.1 mph - 0.00 in Rain Light Rain
6:53 PM 43.0 °F 37.7 °F 24.1 °F 47% 30.25 in 10.0 mi SE 9.2 mph - 0.00 in   Partly Cloudy
7:53 PM 43.0 °F 36.4 °F 25.0 °F 49% 30.25 in 10.0 mi SE 12.7 mph - N/A   Scattered Clouds
8:53 PM 43.0 °F 35.7 °F 25.0 °F 49% 30.25 in 10.0 mi SE 15.0 mph - N/A   Clear
9:53 PM 42.1 °F 36.6 °F 26.1 °F 53% 30.25 in 10.0 mi SSE 9.2 mph - N/A   Clear
10:53 PM 42.1 °F 36.1 °F 27.0 °F 55% 30.24 in 10.0 mi SSE 10.4 mph - N/A   Overcast
11:53 PM 42.1 °F 36.6 °F 26.1 °F 53% 30.22 in 10.0 mi SSE 9.2 mph 17.3 mph N/A   Overcast